Overview Statistics Trail Chart Weather Telemetry Raw packets
 

This is the latest recevied weather packets stored in our database for station/object KQ4LLM. If no packets are shown the sender has not sent any weather packets the latest 10 day(s).

<< 68 69 70 71 72 73 74 >>
Time Temp. Humidity Pressure Rain* Wind** Luminosity Snow
1788199856 31.67° C 57% - 0 mm - - -
1788199551 31.11° C 61% - 0 mm - - -
1788199247 31.11° C 58% - 0 mm - - -
1788198942 31.67° C 60% - 0 mm - - -
1788198638 31.11° C 58% - 0 mm - - -
1788198332 31.67° C 59% - 0 mm - - -
1788198027 31.11° C 59% - 0 mm - - -
1788197725 31.67° C 58% - 0 mm - - -
1788197422 31.67° C 57% - 0 mm - - -
1788197117 31.11° C 59% - 0 mm - - -
1788196811 31.11° C 61% - 0 mm - - -
1788196507 30.56° C 60% - 0 mm - - -
1788196204 31.11° C 61% - 0 mm - - -
1788195900 31.11° C 59% - 0 mm - - -
1788195597 30.56° C 61% - 0 mm - - -
1788195297 30.56° C 62% - 0 mm - - -
1788194994 30.56° C 61% - 0 mm - - -
1788194689 30° C 63% - 0 mm - - -
1788194384 30° C 64% - 0 mm - - -
1788194080 30° C 65% - 0 mm - - -
1788193778 29.44° C 65% - 0 mm - - -
1788193474 30° C 65% - 0 mm - - -
1788193172 29.44° C 67% - 0 mm - - -
1788192869 29.44° C 67% - 0 mm - - -
1788192565 30° C 67% - 0 mm - - -

* Rain latest hour (hover to see other rain measurements)
** Current wind speed in m/s (hover to see current wind gust speed)